Regional Weather Roundup
Issued by NWS

Home | Current Version | Previous Version | Graphics & Text | Print | Product List | Glossary On
Versions: 1 2 3 4 5 6 7 8 9 10 11 12 13 14 15 16 17 18 19 20 21 22 23 24 25 26 27 28 29 30 31 32 33 34 35 36 37 38 39 40 41 42 43 44 45 46 47 48 49 50
000
ASUS43 KBIS 310602
RWRND

NORTH DAKOTA REGIONAL WEATHER ROUNDUP
NATIONAL WEATHER SERVICE BISMARCK ND
100 AM CDT WED AUG 31 2016

NOTE: "FAIR" INDICATES FEW OR NO CLOUDS BELOW 12,000 FEET WITH NO
SIGNIFICANT WEATHER AND/OR OBSTRUCTIONS TO VISIBILITY.


NDZ001>003-009>011-017-310700-
NORTHWEST NORTH DAKOTA

CITY           SKY/WX    TMP DP  RH WIND       PRES   REMARKS
WILLISTON      CLEAR     72  46  39 E8        30.14S
6HR MIN TEMP:  72; 6HR MAX TEMP:  82;

MINOT          FAIR      60  52  74 E8        30.20S
MINOT AFB      FAIR      57  51  80 SE7       30.19S
$$

NDZ018>021-031>035-040>046-310700-
SOUTHWEST NORTH DAKOTA

CITY           SKY/WX    TMP DP  RH WIND       PRES   REMARKS
BISMARCK       PTCLDY    62  54  74 E8        30.19S
6HR MIN TEMP:  62; 6HR MAX TEMP:  81;

DICKINSON      PTCLDY    62  55  77 SE12      30.14R
GARRISON         N/A     63  56  78 E6        30.19S
6HR MIN TEMP:  63; 6HR MAX TEMP:  79;

HETTINGER ARPT PTCLDY    68  58  70 SE9       30.18R
$$

NDZ004>008-012>016-024-026-027-054-310700-
NORTHEAST NORTH DAKOTA

CITY           SKY/WX    TMP DP  RH WIND       PRES   REMARKS
GRAND FORKS    FAIR      56  52  86 N3        30.22R
GRND FRKS AFB  FAIR      55  53  93 N2        30.23R
DEVILS LAKE    FAIR      62  53  72 E5        30.25R
$$

NDZ022-023-025-028>030-036>039-047>053-310700-
SOUTHEAST NORTH DAKOTA

CITY           SKY/WX    TMP DP  RH WIND       PRES   REMARKS
FARGO          FAIR      59  55  87 NE5       30.20S
6HR MIN TEMP:  58; 6HR MAX TEMP:  77;

JAMESTOWN      FAIR      60  54  80 SE6       30.22S
$$





USA.gov is the U.S. government's official web portal to all federal, state and local government web resources and services.